BID: ORB11252.N DECODE 2-LINE ELSETS WITH THE FOLLOWING KEY: 1 AAAAAU 00 0 0 BBBBB.BBBBBBBB .CCCCCCCC 00000-0 00000-0 0 DDDZ 2 AAAAA EEE.EEEE FFF.FFFF GGGGGGG HHH.HHHH III.IIII JJ.JJJJJJJJKKKKKZ KEY: A-CATALOGNUM B-EPOCHTIME C-DECAY D-ELSETNUM E-INCLINATION F-RAAN G-ECCENTRICITY H-ARGPERIGEE I-MNANOM J-MNMOTION K-ORBITNUM Z-CHECKSUM TO ALL RADIO AMATEURS BT AO-07 1 07530U 74089B 11251.55335910 -.00000027 00000-0 10000-3 0 1743 2 07530 101.3957 254.8129 0012064 115.2438 244.9882 12.53583826684638 FO-29 1 24278U 96046B 11251.76886106 .00000078 00000-0 11423-3 0 6592 2 24278 098.5598 024.6750 0351229 040.7518 321.9337 13.52964883743764 SO-33 1 25509U 98061B 11250.77129200 .00000277 00000-0 40571-4 0 00507 2 25509 031.4329 137.2128 0354236 243.9057 112.4735 14.28442211672098 RS-22 1 27939U 03042A 11251.62827149 .00000326 00000-0 71125-4 0 6110 2 27939 097.8365 101.6015 0014777 081.2939 278.9935 14.63636542424544 VO-52 1 28650U 05017B 11251.60751623 .00000606 00000-0 82038-4 0 8934 2 28650 097.6349 290.9768 0025666 247.5008 112.3522 14.82163984343106 SO-67 1 35870U 09049F 11251.65396156 .00002524 00000-0 11663-3 0 2015 2 35870 097.2738 292.2105 0003993 088.5012 067.8259 15.21056409109628 HO-68 1 36122U 09072B 11251.61928555 -.00000044 00000-0 00000 0 0 7214 2 36122 100.4065 311.1369 0007619 036.9496 323.2143 13.16287984 83217 UO-11 1 14781U 84021B 11251.77053639 .00000092 00000-0 19110-4 0 6484 2 14781 097.9968 308.1809 0008087 224.6302 135.4259 14.80025891478154 AO-16 1 20439U 90005D 11251.80327895 .00000097 00000-0 52125-4 0 2756 2 20439 098.3914 198.6550 0010048 278.2664 081.7386 14.31937706129585 LO-19 1 20442U 90005G 11250.96144628 .00000095 00000-0 50892-4 0 01933 2 20442 098.3553 201.8775 0010931 272.5781 087.4151 14.32161823129642 AO-27 1 22825U 93061C 11250.96220973 .00000088 00000-0 51444-4 0 09094 2 22825 098.5373 193.7317 0009082 036.7440 323.4358 14.29361658936012 IO-26 1 22826U 93061D 11250.87645680 .00000066 00000-0 42790-4 0 06571 2 22826 098.5304 194.0963 0009704 031.3602 328.8157 14.29625377936129 GO-32 1 25397U 98043D 11250.94074832 .00000109 00000-0 66250-4 0 05760 2 25397 098.3340 239.1051 0001998 055.0899 305.0486 14.23218013683737 NO-44 1 26931U 01043C 11250.94022479 .00000026 00000-0 42487-4 0 08441 2 26931 067.0525 130.2949 0005347 256.3941 103.6534 14.29677825518754 SO-50 1 27607U 02058C 11250.89463260 .00000177 00000-0 48940-4 0 5590 2 27607 064.5580 076.3348 0079139 303.8158 055.5400 14.71804386468267 CO-55 1 27844U 03031E 11250.56967136 .00000091 00000-0 62291-4 0 1934 2 27844 098.7085 258.0817 0009482 326.9673 033.0925 14.20839331424617 CO-57 1 27848U 03031J 11250.52595016 .00000086 00000-0 60134-4 0 1420 2 27848 098.7147 257.2549 0009332 331.8414 028.2247 14.20615757424555 AO-51 1 28375U 04025K 11250.61501232 .00000048 00000-0 27079-4 0 00661 2 28375 098.1068 224.7645 0083096 179.6979 180.4282 14.40777002377939 CP3 1 31129U 07012N 11251.63957685 .00000314 00000-0 82786-4 0 9639 2 31129 097.8981 271.0218 0100578 281.9685 077.0219 14.52554193232957 CO-65 1 32785U 08021C 11250.71642922 .00000281 00000-0 41863-4 0 00918 2 32785 097.8409 312.9997 0013723 267.2223 092.7409 14.82100638181761 PRISM 1 33493U 09002B 11251.68995966 .00001607 00000-0 20944-3 0 9425 2 33493 098.1347 021.5758 0020643 128.9467 231.3602 14.81899457141881 SOHLA-1 1 33496U 09002E 11250.90941452 .00000226 00000-0 46263-4 0 5103 2 33496 098.0854 359.9307 0005826 214.8469 145.2355 14.69653125140633 TISAT-1 1 36799U 10035E 11251.73269348 .00000900 00000-0 12390-3 0 2153 2 36799 098.0945 320.7866 0015511 012.6034 347.5561 14.80695809 62674 STUDSAT 1 36801U 10035G 11250.78495967 .00002243 00000-0 29643-3 0 02633 2 36801 098.0980 319.7539 0013630 003.9658 356.1660 14.80961117062525 OOREOS 1 37224U 10062C 11153.29456974 .00000492 00000-0 77478-4 0 01796 2 37224 071.9726 071.8135 0020315 307.7637 052.1684 14.77036357028673 FO-69 1 37227U 0 11236.21052771 .00000132 00000-0 26839-4 0 01157 2 37227 071.9679 249.2733 0016566 160.7113 199.4694 14.76627258019364 NANOSALD 1 37361U 0 11242.25215765 .00180112 00000-0 75811-2 0 03512 2 37361 071.9735 221.4469 0025730 245.3422 114.7284 15.22200108033319 FO-70 1 37380U 0 11236.23500000 .00000086 00000-0 20359-4 0 02523 2 37380 071.9713 249.4107 0017170 157.2901 202.9024 14.76392013040907 NOAA-10 1 16969U 86073A 11250.92061644 -.00000030 00000-0 57407-5 0 06401 2 16969 098.6163 279.5633 0012239 347.9457 012.1430 14.27474909299454 NOAA-11 1 19531U 88089A 11250.79555446 .00000218 00000-0 13538-3 0 06289 2 19531 098.7475 336.6866 0010465 316.3520 043.6826 14.14922997184432 NOAA-12 1 21263U 91032A 11250.96839517 .00000037 00000-0 34605-4 0 01361 2 21263 098.7502 268.6632 0011806 310.1026 049.9119 14.25735758056202 MET-3/5 1 21655U 91056A 11251.77518856 .00000051 00000-0 10000-3 0 2035 2 21655 082.5627 351.7117 0012432 312.4679 047.5410 13.17032896964729 MET-2/21 1 22782U 93055A 11251.63302535 .00000047 00000-0 29254-4 0 1977 2 22782 082.5448 256.6713 0021327 222.0852 137.8662 13.83660671910093 OKEAN-4 1 23317U 94066A 11251.75641679 .00000473 00000-0 54924-4 0 6603 2 23317 082.5402 295.1049 0021082 199.0115 161.0315 14.83142077912936 NOAA-14 1 23455U 94089A 11250.90680950 .00000026 00000-0 37124-4 0 06250 2 23455 098.8475 332.7051 0010124 048.3166 311.8870 14.13830620860762 NOAA-15 1 25338U 98030A 11250.81216894 -.00000026 00000-0 76619-5 0 09420 2 25338 098.6635 235.8548 0010130 207.7684 152.2927 14.24946420692498 RESURS 1 25394U 98043A 11251.63855077 -.00000022 00000-0 81244-5 0 8873 2 25394 098.3038 250.0809 0001991 019.8859 340.2397 14.24238346684182 FENGYUN1 1 25730U 99025A 11250.91750039 .00000911 00000-0 55200-3 0 4165 2 25730 098.8227 210.3161 0024831 081.0411 279.3564 14.08768168634718 OKEAN-0 1 25860U 99039A 11250.99063133 .00000236 00000-0 43515-4 0 04240 2 25860 097.8943 215.2012 0001898 073.2034 286.9383 14.73826298652856 NOAA-16 1 26536U 00055A 11250.73426205 -.00000063 00000-0 -92244-5 0 04251 2 26536 099.1357 282.9319 0010976 156.8272 203.3398 14.12640402565015 NOAA-17 1 27453U 02032A 11250.93101327 .00000085 00000-0 54557-4 0 04137 2 27453 098.3732 286.8154 0010704 267.1412 092.8541 14.24308309478433 NOAA-18 1 28654U 05018A 11250.96581591 -.00000079 00000-0 -18599-4 0 08917 2 28654 099.0028 202.3461 0013539 230.0846 129.9123 14.11508950324603 NOAA-19 1 33591U 09005A 11250.91054128 -.00000003 00000-0 22264-4 0 00821 2 33591 098.8306 189.6909 0015086 101.5350 258.7531 14.11198593133059 HUBBLE 1 20580U 90037B 11249.21412307 .00001252 00000-0 81880-4 0 8315 2 20580 028.4685 207.1079 0003124 260.3951 099.6471 15.01483107971847 ISS 1 25544U 98067A 11251.81166667 .00064930 00000-0 75898-3 0 297 2 25544 051.6390 099.8394 0012166 168.2630 004.3741 15.60883766733967 CO-58 1 28895U 05043F 11250.64100617 .00000409 00000-0 94021-4 0 09698 2 28895 097.9528 123.7905 0017374 325.6829 034.3236 14.60162622312274 FALCON 1 30776U 07006E 11250.97950719 .00002283 00000-0 16099-3 0 01829 2 30776 035.4326 203.4647 0001476 053.1398 306.9465 15.04899740247521 MAST 1 31126U 07012K 11250.97234323 .00000248 00000-0 66329-4 0 02576 2 31126 097.8915 273.5072 0093308 273.3349 085.7196 14.53796387233113 CAPE1 1 31130U 07012P 11250.75979036 .00000141 00000-0 43175-4 0 02682 2 31130 097.8971 269.9556 0100983 285.1235 073.8751 14.52454370232621 COMPASS 1 32787U 08021E 11250.68883902 .00001391 00000-0 17920-3 0 00886 2 32787 097.8403 312.9425 0014539 267.7864 092.1673 14.82580317181780 AAUSAT2 1 32788U 08021F 11251.65412340 .00000740 00000-0 98013-4 0 766 2 32788 097.8402 314.1398 0014089 264.7991 095.1557 14.82775689181941 DO-64 1 32789U 08021G 11251.63463101 .00002077 00000-0 25961-3 0 920 2 32789 097.8500 315.2918 0014123 261.9026 098.0571 14.83339089181958 CO-66 1 32791U 08021J 11250.72342282 .00000568 00000-0 77717-4 0 00805 2 32791 097.8411 312.8887 0014856 267.0980 092.8534 14.82243181181732 RS-30 1 32953U 08025A 11251.69488002 .00000010 00000-0 00000 0 0 681 2 32953 082.4999 110.8165 0017996 202.9769 157.0505 12.43014761149460 TACSAT-3 1 35001U 09028A 11250.83873894 .00026456 00000-0 43490-3 0 6899 2 35001 040.4530 029.9318 0018869 107.2618 253.0267 15.51531357129919 PHARMSAT 1 35002U 09028B 11250.77478279 .00020526 00000-0 34919-3 0 06462 2 35002 040.4698 028.6613 0020945 111.3541 248.9510 15.50631720129927 HAWKSAT1 1 35003U 09028C 11251.63447852 .00218672 00000-0 10402-2 0 7543 2 35003 040.4503 337.1747 0012424 129.3579 230.8356 15.81317600130564 CP6 1 35004U 09028D 11247.64656856 .16152067 73217-5 10011-2 0 7842 2 35004 040.4403 342.9642 0002956 038.0069 322.2231 16.41039951130139 METEOR-M 1 35865U 09049A 11251.61159624 .00000177 00000-0 10000-3 0 7080 2 35865 098.6978 305.6243 0002984 134.5366 225.6056 14.21841779102441 RS-38 1 35869U 09049E 11251.74202438 .00000177 00000-0 10000-3 0 6900 2 35869 098.6943 305.7827 0004711 138.8547 221.2936 14.22020656102470 ARISSAT1 1 37772U 98067CK 11251.65163028 .00039814 00000-0 44018-3 0 1107 2 37772 051.6382 100.4016 0012051 176.5714 289.5955 15.62539337 5524 /EX
10 years, 8 months
1
0
0
0
orb11252.amsat
by Ray Hoad
SB KEPS @ AMSAT $ORB11252.O Orbital Elements 11252.OSCAR HR AMSAT ORBITAL ELEMENTS FOR OSCAR SATELLITES FROM WA5QGD FORT WORTH,TX September 9, 2011 Send Subscribe/unsubscribe to KEPS at
http://www.amsat.org/mailman/listinfo/keps
